• Join FlightAware (Why Join?)
  • Login
  • US Flag 
06:18PM EST


 

Airport Tracker/Info


-or-


 

Live Flight TrackerFlight Track Log ✈ N860BA ✈ 24-Aug-2013 ✈ KGUC - KABQ

Flight Track Log - Related Links

Times and Time Zones

All times are in EDT time to prevent confusion due to time zone crossing. See the N860BA flight status page for this flight to view local times or setup timezone preferences in your user account.

Time Position Orientation Groundspeed Altitude Reporting Facility
EDT Latitude Longitude Course Direction KTS MPH feet Rate Location/Type
03:51PM 38.5422 -106.8419 87° East 212 244 10,200  Level Denver Center
03:52PM 38.4639 -106.8072 161° South 251 289 13,400 3,122 Climbing Denver Center
03:53PM 38.3853 -106.8022 177° South 269 310 16,600 2,390 Climbing Denver Center
03:54PM 37.9529 -106.8742 177° South  Level FlightAware Approximate
03:54PM 38.3025 -106.7994 178° South 288 331 18,300  Level Denver Center
03:55PM 37.8561 -106.8689 177° South  Level FlightAware Approximate
03:55PM 38.2069 -106.7947 178° South 332 382 20,400  Level Denver Center
03:56PM 38.1078 -106.7883 177° South 353 406 22,500 2,195 Climbing Denver Center
03:57PM 37.9972 -106.7839 178° South 355 409 24,900 2,098 Climbing Denver Center
03:58PM 37.8975 -106.7764 177° South 360 414 26,800 1,016 Climbing Denver Center
03:59PM 37.7778 -106.7706 178° South 380 437 27,000 97 Climbing Denver Center
04:00PM 37.6639 -106.7644 178° South 413 475 27,000  Level Denver Center
04:01PM 37.5247 -106.7417 173° South 440 506 27,000  Level Denver Center
04:02PM 37.4092 -106.7067 166° South 443 510 27,000  Level Denver Center
04:03PM 37.2942 -106.6964 176° South 433 498 27,000  Level Denver Center
04:04PM 37.1592 -106.6950 180° South 433 498 27,000  Level Denver Center
04:05PM 37.0456 -106.6550 164° South 441 507 27,000  Level Denver Center
04:06PM 36.9158 -106.6133 166° South 433 498 27,000  Level Denver Center
04:07PM 36.8031 -106.5775 166° South 434 499 27,000  Level Denver Center
04:08PM 36.6922 -106.5403 165° South 431 496 27,000  Level Denver Center
04:09PM 36.6175 -106.5178 166° South 427 491 27,000  Level Albuquerque Center
04:10PM 36.5019 -106.4803 165° South 428 493 27,000 -341 Level Albuquerque Center
04:11PM 36.3650 -106.4358 165° South 426 490 26,300 -836 Descending Albuquerque Center
04:12PM 36.2553 -106.3967 164° South 414 476 25,300 -927 Descending Albuquerque Center
04:13PM 36.1492 -106.3611 165° South 401 461 24,400 -976 Descending Albuquerque Center
04:14PM 36.0447 -106.3983 196° South 391 450 23,300 -683 Descending Albuquerque Center
04:15PM 35.9422 -106.4433 200° South 391 450 23,000 -341 Descending Albuquerque Center
04:16PM 35.8225 -106.4908 198° South 404 465 22,600 -885 Descending Albuquerque Center
04:17PM 35.7217 -106.5356 200° South 386 444 21,200 -1,561 Descending Albuquerque Center
04:18PM 35.6211 -106.5772 199° South 386 444 19,400 -1,902 Descending Albuquerque Center
04:19PM 35.5161 -106.6203 198° South 393 452 17,300 -1,826 Descending Albuquerque Center
04:20PM 35.4242 -106.6575 198° South 381 438 15,900 -893 Descending Albuquerque Center
04:21PM 35.3208 -106.7025 200° South 335 386 15,500 -1,140 Descending Albuquerque Center
04:22PM 35.2431 -106.7331 198° South 319 367 13,600 -2,064 Descending Albuquerque Center
04:23PM 35.1508 -106.7650 196° South 322 371 11,200 -2,063 Descending Albuquerque Center
04:24PM 35.0622 -106.7717 184° South 278 320 9,200 -1,415 Descending Albuquerque Center
04:25PM 35.0328 -106.7247 127° Southeast 193 222 8,300 -1,323 Descending Albuquerque Center
04:26PM 35.0444 -106.6817 72° East 159 183 6,400 -1,366 Descending Albuquerque Center
04:27PM 35.0442 -106.6208 90° East 149 171 5,500 -871 Descending Albuquerque Center
04:29PM 35.0402 -106.6092 North  Level Estimated